Regional Weather Roundup
Issued by NWS

Home | Current Version | Previous Version | Text Only | Print | Product List | Glossary On
Versions: 1 2 3 4 5 6 7 8 9 10 11 12 13 14 15 16 17 18 19 20 21 22 23 24 25 26 27 28 29 30 31 32 33 34 35 36 37 38 39 40 41 42 43 44 45 46 47 48 49 50
171
ASUS45 KBOU 180407
RWRCO

WEATHER ROUNDUP FOR COLORADO
NATIONAL WEATHER SERVICE DENVER/BOULDER CO
900 PM MST TUE JAN 17 2017

NOTE: "FAIR" INDICATES FEW OR NO CLOUDS BELOW 12000 FEET WITH NO
SIGNIFICANT WEATHER AND/OR OBSTRUCTIONS TO VISIBILITY.

COZ001>005-013-030-031-180500-
...NORTHWEST COLORADO...

CITY           SKY/WX    TMP DP  RH WIND       PRES   REMARKS
CRAIG          FOG       14  10  84 VRB3      30.22S VSB 1/2
HAYDEN         MOCLDY     9   3  78 CALM      30.19R VSB 1/4
MEEKER         FAIR      13  11  92 CALM      30.19R
MOUNT WERNER   NOT AVBL
STEAMBOAT SPGS FAIR      14  13  94 CALM      30.18S
WALDEN           N/A    N/A N/A N/A CALM      30.17S
$$

COZ006>008-011-180500-
...WEST CENTRAL VALLEYS...

CITY           SKY/WX    TMP DP  RH WIND       PRES   REMARKS
GRAND JUNCTION FAIR      30  29  96 CALM      30.17S
MONTROSE       CLOUDY    37  31  78 N3        30.18S
EAGLE          CLEAR     19  18  93 CALM      30.21S
RIFLE          FAIR      26  23  88 CALM      30.18S
DELTA          CLOUDY    39  33  78 NE5       30.17S
NUCLA          MOCLDY    34  28  80 NW6       30.19S WCI  29
$$

COZ017>023-064>068-180500-
...SOUTHWEST COLORADO...

CITY           SKY/WX    TMP DP  RH WIND       PRES   REMARKS
DURANGO        CLOUDY    35  30  82 CALM      30.12S
CORTEZ         MOCLDY    36  33  89 E5        30.14S
PAGOSA SPRINGS CLOUDY    34  33  99 CALM      30.14S
TELLURIDE      MOCLDY    26  24  91 CALM      30.17R
WOLF CREEK PAS CLOUDY    18  18 100 CALM      30.20R
$$

COZ009-010-012-014-032>034-037-058>063-180500-
...CENTRAL COLORADO...

CITY           SKY/WX    TMP DP  RH WIND       PRES   REMARKS
ASPEN          FAIR      19  15  84 SW7       30.15S WCI  10
BUENA VISTA    FAIR      28  16  61 NW15G25   30.10S WCI  16
COPPER MTN     FAIR      25 -17  15 MISG      30.15F
BERTHOUD PASS  NOT AVBL
COTTONWOOD PAS FAIR      32  10  40 W13       30.11S WCI  22
GUNNISON       CLOUDY    20  17  88 E3        30.19R
KREMMLING      FAIR      14  10  85 CALM      30.21S
LEADVILLE      FAIR      11   6  81 N5        30.13S WCI   3
MONARCH PASS   CLOUDY    18  14  86 MISG      30.25S
SALIDA         FAIR      28  20  74 W8        30.19R WCI  20
SUNLIGHT       FAIR      18  14  86 E5        30.20S WCI  11
WILKERSON PASS MOCLDY    25   3  39 NE5       30.16R WCI  19
$$

COZ069>075-180500-
...SAN LUIS VALLEY/SANGRE DE CRISTO MOUNTAINS...

CITY           SKY/WX    TMP DP  RH WIND       PRES   REMARKS
ALAMOSA        CLOUDY    25  23  92 NW3       30.13S
LA VETA PASS   CLOUDY    21  19  93 NE15      30.12S FOG     WCI   8
SAGUACHE       MOCLDY    23  23 100 SE3       30.15R FOG
$$

COZ035-036-038>040-180500-
...NORTHERN COLORADO FRONT RANGE...

CITY           SKY/WX    TMP DP  RH WIND       PRES   REMARKS
DENVER INTL AP FAIR      31  22  69 SW12      30.00F WCI  22
DMNS CITY PARK   N/A     33  25  73 SE8       30.01S WCI  26
AURORA         PTCLDY    28  19  68 S13       30.01F WCI  18
FRONT RANGE AP NOT AVBL
ERIE MUNI ARPT FAIR      22  20  92 CALM      30.01S
BOULDER MUN AP FAIR      32  27  80 CALM      30.01R
CENTENNIAL     FAIR      29  22  75 S12       30.01F WCI  19
BROOMFIELD     CLEAR     32  19  59 S6        30.01S WCI  26
FORT COLLINS   FAIR      28  25  86 NW3       30.01F
LONGMONT       FAIR      22  17  81 W5        30.03S WCI  16
$$

COZ041-046-047-076>085-087-088-180500-
...PIKES PEAK/PALMER DIVIDE AND SOUTHERN FOOTHILLS...

CITY           SKY/WX    TMP DP  RH WIND       PRES   REMARKS
COLO. SPRINGS  FAIR      27  21  78 N7        30.05R WCI  19
A. F. ACADEMY  FAIR      26  18  73 N5        30.04R WCI  20
SCHRIEVER AFB  NOT AVBL
ELLICOTT       FAIR     N/A N/A N/A CALM      30.04R
FALCON         FAIR      28   9  46 CALM      30.05S
FORT CARSON    CLEAR     34  27  75 W1        30.05R
LIMON          FAIR      19  18  95 N3        30.04R
MONUMENT HILL  FAIR      19  10  68 SW8       30.06R WCI   9
TRINIDAD       FAIR      27  24  89 W9        30.06R WCI  18
$$

COZ042>045-048>051-090-091-180500-
...NORTHEAST COLORADO...

CITY           SKY/WX    TMP DP  RH WIND       PRES   REMARKS
GREELEY ARPT   FAIR      24  23  96 CALM      30.03S
AKRON          FAIR      26  22  84 W12       30.00S WCI  16
BURLINGTON     FAIR      32  28  85 S15       30.06R WCI  22
WRAY           FAIR      27  27 100 W5        30.03R WCI  21
STERLING       FAIR      25  23  93 SW6       30.00S WCI  18
HOLYOKE        FAIR      25  21  86 W7        30.00F WCI  17
FORT MORGAN    FAIR      25  22  91 W9        30.02S WCI  15
$$

COZ086-089-092>099-180500-
...SOUTHEAST COLORADO...

CITY           SKY/WX    TMP DP  RH WIND       PRES   REMARKS
PUEBLO         FOG       27  26  96 NE5       30.06R VSB 1/4 WCI  22
LA JUNTA       FOG       23  21  92 SW8       30.09R VSB 1/2 WCI  14
LAMAR          FAIR      23  20  88 SW7       30.06S WCI  15
SPRINGFIELD      N/A     30  29  96 SW5       30.06S WCI  25
$$




USA.gov is the U.S. government's official web portal to all federal, state and local government web resources and services.